Weather History for Altus AFB, OK

Change the Weather History Date:

Wednesday, July 17, 2013

  Actual Average Record
Temperature  
Mean Temperature 78 °F -  
Max Temperature 87 °F 96 °F 105 °F (2001)
Min Temperature 68 °F 71 °F 67 °F (2007)
Cooling Degree Days 12    
Growing Degree Days 28 (Base 50)    
Moisture  
Dew Point 71 °F    
Average Humidity 87    
Maximum Humidity 100    
Minimum Humidity 55    
Precipitation  
Precipitation 0.08 in - - ()
Sea Level Pressure  
Sea Level Pressure 30.24 in    
Wind  
Wind Speed 10 mph (ESE)    
Max Wind Speed 21 mph    
Max Gust Speed 26 mph    
Visibility 10 miles    
Events Rain    
Averages and records for this station are not official NWS values.
T = Trace of Precipitation, MM = Missing Value Source: NWS Daily Summary

Daily Weather History Graph

Daily Weather History Graph

Search for Another Location

Airport:

Trip Planner

Search our weather history database for the weather conditions in past years. The results will help you decide how hot, cold, wet, or windy it might be!

Date:

Astronomy

Jul. 17, 2013 Rise Set
Actual Time 6:36 AM CDT 8:49 PM CDT
Civil Twilight 6:08 AM CDT 9:18 PM CDT
Nautical Twilight 5:33 AM CDT 9:53 PM CDT
Astronomical Twilight 4:54 AM CDT 10:30 PM CDT
Moon 3:43 PM CDT (7/17) 1:40 AM CDT (7/17)
Length of Visible Light 15h 09m
Length of Day
14h 12m
Waxing Gibbous, 67% of the Moon is Illuminated
Jul 17
Waxing Gibbous
Jul 22
Full
Jul 29
Last Quarter
Aug 6
New
Aug 14
First Quarter

Hourly Weather History & Observations

Time (CDT) Temp. Heat Index Dew Point Humidity Pressure Visibility Wind Dir Wind Speed Gust Speed Precip Events Conditions
12:03 AM 73.4 °F - 73.4 °F 100% 30.25 in 10.0 mi East 20.7 mph 26.5 mph N/A   Mostly Cloudy
12:24 AM 71.6 °F - 71.6 °F 100% 30.25 in 5.0 mi ESE 16.1 mph 25.3 mph N/A Rain Light Rain
12:25 AM 71.6 °F - 71.6 °F 100% 30.25 in 5.0 mi ESE 18.4 mph 25.3 mph N/A Rain Light Rain
12:30 AM 71.6 °F - 71.6 °F 100% 30.25 in 3.0 mi ESE 13.8 mph - N/A Rain Light Rain
12:35 AM 69.8 °F - 69.8 °F 100% 30.25 in 4.0 mi ESE 12.7 mph - N/A Rain Light Rain
12:48 AM 69.8 °F - 69.8 °F 100% 30.25 in 10.0 mi East 12.7 mph - N/A   Scattered Clouds
12:58 AM 70.0 °F - 70.0 °F 100% 30.21 in 10.0 mi East 12.7 mph - 0.05 in   Partly Cloudy
1:58 AM 69.3 °F - 69.3 °F 100% 30.20 in 10.0 mi East 9.2 mph - N/A   Scattered Clouds
2:58 AM 68.5 °F - 68.5 °F 100% 30.19 in 10.0 mi NE 3.5 mph - 0.01 in   Partly Cloudy
3:58 AM 69.1 °F - 69.1 °F 100% 30.19 in 10.0 mi East 5.8 mph - N/A   Scattered Clouds
4:58 AM 70.0 °F - 70.0 °F 100% 30.19 in 10.0 mi ENE 3.5 mph - N/A   Scattered Clouds
5:38 AM 69.8 °F - 69.8 °F 100% 30.25 in 10.0 mi ESE 3.5 mph - N/A   Light Drizzle
5:43 AM 69.8 °F - 69.8 °F 100% 30.25 in 10.0 mi ESE 3.5 mph - N/A   Light Drizzle
5:48 AM 69.8 °F - 69.8 °F 100% 30.25 in 10.0 mi ESE 2.3 mph - N/A   Mostly Cloudy
5:58 AM 69.8 °F - 69.8 °F 100% 30.22 in 10.0 mi SE 3.5 mph - 0.00 in   Mostly Cloudy
6:15 AM 69.8 °F - 69.8 °F 100% 30.26 in 10.0 mi SE 3.5 mph - N/A   Light Drizzle
6:44 AM 69.8 °F - 69.8 °F 100% 30.27 in 10.0 mi East 4.6 mph - N/A   Scattered Clouds
6:58 AM 69.8 °F - 69.8 °F 100% 30.24 in 10.0 mi East 5.8 mph - 0.00 in   Partly Cloudy
7:58 AM 71.2 °F - 71.2 °F 100% 30.24 in 10.0 mi East 6.9 mph - N/A   Partly Cloudy
8:00 AM 71.6 °F - 71.6 °F 100% 30.28 in 10.0 mi East 6.9 mph - N/A   Partly Cloudy
8:10 AM 71.6 °F - 71.6 °F 100% 30.27 in 10.0 mi East 8.1 mph - N/A   Mostly Cloudy
8:20 AM 71.6 °F - 71.6 °F 100% 30.28 in 10.0 mi East 8.1 mph - N/A   Mostly Cloudy
8:33 AM 71.6 °F - 71.6 °F 100% 30.28 in 10.0 mi East 8.1 mph - N/A   Light Drizzle
8:43 AM 71.6 °F - 71.6 °F 100% 30.29 in 10.0 mi East 10.4 mph - N/A   Light Drizzle
8:55 AM 71.6 °F - 71.6 °F 100% 30.29 in 10.0 mi East 6.9 mph - N/A   Overcast
8:58 AM 72.1 °F - 72.1 °F 100% 30.26 in 10.0 mi East 6.9 mph - 0.00 in   Overcast
9:13 AM 71.6 °F - 71.6 °F 100% 30.29 in 10.0 mi East 8.1 mph - N/A   Mostly Cloudy
9:58 AM 73.6 °F - 73.6 °F 100% 30.27 in 10.0 mi ESE 10.4 mph - N/A   Mostly Cloudy
10:03 AM 73.4 °F - 73.4 °F 100% 30.30 in 10.0 mi East 9.2 mph - N/A   Mostly Cloudy
10:08 AM 73.4 °F - 73.4 °F 100% 30.30 in 10.0 mi ESE 8.1 mph - N/A   Mostly Cloudy
10:13 AM 73.4 °F - 73.4 °F 100% 30.30 in 10.0 mi ESE 8.1 mph - N/A   Mostly Cloudy
10:33 AM 73.4 °F - 73.4 °F 100% 30.30 in 10.0 mi SE 9.2 mph - N/A   Mostly Cloudy
10:38 AM 73.4 °F - 73.4 °F 100% 30.30 in 10.0 mi SE 8.1 mph - N/A   Mostly Cloudy
10:58 AM 74.3 °F - 72.5 °F 94% 30.27 in 10.0 mi SE 6.9 mph - N/A   Mostly Cloudy
11:16 AM 75.2 °F - 71.6 °F 89% 30.30 in 10.0 mi Variable 6.9 mph - N/A   Light Drizzle
11:25 AM 75.2 °F - 71.6 °F 89% 30.30 in 10.0 mi SE 9.2 mph - N/A   Mostly Cloudy
11:40 AM 75.2 °F - 71.6 °F 89% 30.30 in 10.0 mi SE 4.6 mph - N/A   Mostly Cloudy
11:45 AM 75.2 °F - 71.6 °F 89% 30.30 in 10.0 mi ESE 5.8 mph - N/A   Mostly Cloudy
11:46 AM 75.2 °F - 71.6 °F 89% 30.30 in 10.0 mi ESE 5.8 mph - N/A   Light Drizzle
11:54 AM 77.0 °F - 71.6 °F 83% 30.30 in 10.0 mi SSE 4.6 mph - N/A   Mostly Cloudy
11:58 AM 76.3 °F - 71.1 °F 84% 30.27 in 10.0 mi ESE 5.8 mph - 0.00 in   Mostly Cloudy
12:28 PM 77.0 °F - 71.6 °F 83% 30.30 in 10.0 mi SE 6.9 mph - N/A   Mostly Cloudy
12:38 PM 77.0 °F - 71.6 °F 83% 30.30 in 10.0 mi ESE 6.9 mph - N/A   Mostly Cloudy
12:43 PM 78.8 °F - 71.6 °F 78% 30.29 in 10.0 mi East 5.8 mph - N/A   Mostly Cloudy
12:48 PM 78.8 °F - 71.6 °F 78% 30.29 in 10.0 mi ESE 8.1 mph - N/A   Mostly Cloudy
12:58 PM 77.7 °F - 71.1 °F 80% 30.26 in 10.0 mi East 8.1 mph - N/A   Mostly Cloudy
1:23 PM 78.8 °F - 71.6 °F 78% 30.28 in 10.0 mi East 10.4 mph - N/A   Overcast
1:33 PM 78.8 °F - 71.6 °F 78% 30.28 in 10.0 mi East 10.4 mph - N/A   Overcast
1:43 PM 78.8 °F - 71.6 °F 78% 30.28 in 10.0 mi East 11.5 mph - N/A   Overcast
1:58 PM 79.5 °F - 71.4 °F 76% 30.24 in 10.0 mi East 10.4 mph - N/A   Mostly Cloudy
2:55 PM 82.4 °F 87.2 °F 71.6 °F 70% 30.24 in 10.0 mi ESE 5.8 mph - N/A   Scattered Clouds
2:58 PM 81.7 °F 85.8 °F 71.2 °F 70% 30.21 in 10.0 mi East 5.8 mph - N/A   Mostly Cloudy
3:24 PM 84.2 °F 89.6 °F 71.6 °F 66% 30.23 in 10.0 mi Calm Calm - N/A   Mostly Cloudy
3:49 PM 86.0 °F 90.4 °F 69.8 °F 58% 30.22 in 10.0 mi ESE 9.2 mph - N/A   Scattered Clouds
3:58 PM 85.3 °F 89.8 °F 69.8 °F 60% 30.18 in 10.0 mi East 9.2 mph - N/A   Mostly Cloudy
4:03 PM 84.2 °F 88.4 °F 69.8 °F 62% 30.22 in 10.0 mi ESE 6.9 mph - N/A   Scattered Clouds
4:13 PM 86.0 °F 90.4 °F 69.8 °F 58% 30.22 in 10.0 mi ESE 11.5 mph - N/A   Mostly Cloudy
4:23 PM 87.8 °F 92.6 °F 69.8 °F 55% 30.22 in 10.0 mi SSE 12.7 mph 16.1 mph N/A   Mostly Cloudy
4:28 PM 86.0 °F 90.4 °F 69.8 °F 58% 30.22 in 10.0 mi SE 9.2 mph 16.1 mph N/A   Mostly Cloudy
4:38 PM 86.0 °F 90.4 °F 69.8 °F 58% 30.21 in 10.0 mi Variable 6.9 mph - N/A   Scattered Clouds
4:58 PM 85.5 °F 89.4 °F 69.3 °F 58% 30.16 in 10.0 mi Variable 5.8 mph - N/A   Partly Cloudy
5:39 PM 82.4 °F 87.2 °F 71.6 °F 70% 30.20 in 10.0 mi East 18.4 mph - N/A Rain Light Rain
5:49 PM 77.0 °F - 73.4 °F 89% 30.20 in 6.0 mi East 12.7 mph - N/A Rain Light Rain
5:54 PM 78.8 °F - 73.4 °F 83% 30.20 in 6.0 mi East 9.2 mph - N/A   Haze
5:56 PM 78.8 °F - 73.4 °F 83% 30.20 in 9.0 mi East 8.1 mph - N/A   Light Drizzle
5:58 PM 78.1 °F - 73.8 °F 86% 30.17 in 10.0 mi East 6.9 mph - 0.02 in   Light Drizzle
6:58 PM 81.9 °F 86.2 °F 71.1 °F 70% 30.16 in 10.0 mi East 13.8 mph - 0.00 in   Mostly Cloudy
7:07 PM 81.9 °F 86.2 °F 71.1 °F 70% 30.16 in 10.0 mi East 13.8 mph - 0.00 in   Mostly Cloudy
7:16 PM 80.6 °F 83.9 °F 69.8 °F 70% 30.20 in 10.0 mi East 15.0 mph - N/A   Clear
7:58 PM 79.3 °F - 71.1 °F 76% 30.18 in 10.0 mi ESE 8.1 mph - N/A   Mostly Cloudy
8:03 PM 78.8 °F - 71.6 °F 78% 30.21 in 10.0 mi East 8.1 mph - N/A   Clear
8:58 PM 77.7 °F - 72.9 °F 85% 30.19 in 10.0 mi ESE 6.9 mph - N/A   Mostly Cloudy
9:00 PM 77.0 °F - 73.4 °F 89% 30.22 in 10.0 mi ESE 6.9 mph - N/A Rain Light Rain
9:05 PM 77.0 °F - 73.4 °F 89% 30.22 in 10.0 mi ESE 6.9 mph - N/A Rain Light Rain
9:14 PM 77.0 °F - 73.4 °F 89% 30.22 in 10.0 mi SE 4.6 mph - N/A   Mostly Cloudy
9:40 PM 77.0 °F - 73.4 °F 89% 30.22 in 10.0 mi SSE 9.2 mph - N/A   Overcast
9:56 PM 77.0 °F - 73.4 °F 89% 30.17 in 10.0 mi SE 8.1 mph - N/A   Overcast
10:58 PM 75.2 °F - 69.8 °F 83% 30.19 in 10.0 mi SSE 5.8 mph - N/A   Overcast
11:58 PM 73.2 °F - 70.5 °F 91% 30.19 in 10.0 mi SE 6.9 mph - N/A   Overcast